Location: Unspecified
(0.0000°N, 0.0000°E)
Time: 07:48:07
(UTC+00:00)

Vanguard 2 Rocket - Pass Details

Date: 08 October 2023
Orbit: 552 x 3312 km, 32.9° (Epoch: 06 December)

Event Time Altitude Azimuth Distance (km) Brightness Sun altitude
Rises 07:58:19 0° 295° (WNW) 4,405 9.9 32.5°
Reaches altitude 10° 08:02:37 10° 316° (NW) 3,921 9.8 33.5°
Maximum altitude 08:08:45 16° 351° (N) 4,070 10.2 35.1°
Drops below altitude 10° 08:16:43 10° 24° (NNE) 5,287 11.1 37.0°
Sets 08:24:34 0° 42° (NE) 6,832 11.7 39.0°
